#timestamp,LO_Frequency,Hit,StdDev 
1589608815.0,286046997.1,N
1589608815.9,286046997.1,N
1589608835.8,286046995.8,N
1589608855.6,286046996.6,N
1589608875.4,286046992.0,N
1589608895.3,286046988.2,N
1589608915.1,286046984.4,Y
1589608935.8,286046992.0,P
1589608955.7,286046995.6,N
1589608975.5,286046991.8,P
1589608995.4,286046989.0,Y
1589609015.2,286046992.6,P
1589609035.0,286046993.5,P
1589609035.9,286046993.5,P
1589609055.8,286046990.7,Y
1589609075.6,286047000.8,P
1589609095.5,286046999.3,N
1589609115.3,286046995.9,N
1589609135.1,286046994.2,N
1589609155.9,286046994.4,N
1589609175.7,286047000.3,N
1589609195.5,286046998.8,N
1589609215.4,286046993.8,N
1589609235.2,286046990.4,Y
1589609255.1,286046990.3,P
1589609256.0,286046990.3,P
1589609275.8,286046991.6,N
1589609295.6,286046986.0,Y
1589609315.5,286046988.6,P
1589609335.3,286046991.5,P
1589609355.2,286046984.1,P
1589609375.9,286046980.7,Y
1589609395.0,286046989.3,P
1589609395.9,286046989.3,P
1589609415.8,286046992.8,P
1589609435.6,286046995.0,Y
1589609455.4,286047011.2,P
1589609475.3,286047014.9,N
1589609495.1,286047009.7,N
1589609515.9,286047006.5,N
1589609535.7,286047009.2,N
1589609555.5,286047009.4,N
1589609575.4,286047006.4,N
1589609595.2,286047011.8,N
1589609615.1,286047021.4,Y
1589609616.0,286047021.4,P
1589609635.8,286047020.2,N
1589609655.6,286047015.3,N
1589609675.5,286047018.5,Y
1589609695.3,286047002.4,P
1589609715.1,286046999.2,N
1589609735.9,286047000.0,N
1589609755.7,286046991.0,N
1589609775.6,286046978.4,N
1589609795.4,286046966.6,N
1589609815.2,286046958.8,N
1589609835.1,286046949.1,N
1589609836.0,286046949.1,N
1589609855.8,286046944.3,N
1589609875.7,286046939.9,N
1589609895.5,286046944.9,N
1589609915.3,286046939.6,N
1589609935.2,286046939.3,N
1589609955.0,286046939.8,N
1589609955.9,286046939.8,N
1589609975.7,286046940.2,N
1589609995.6,286046939.4,N
1589610015.4,286046946.7,N
1589610035.3,286046944.5,N
1589610055.1,286046942.7,N
1589610056.0,286046942.7,N
1589610075.8,286046939.1,N
1589610095.7,286046944.4,N
1589610115.5,286046952.9,N
1589610135.3,286046957.3,N
1589610155.2,286046961.9,N
1589610175.0,286046968.4,N
1589610175.9,286046968.4,N
1589610195.8,286046973.7,N
1589610215.6,286046975.5,N
1589610235.4,286046973.8,N
1589610255.3,286046969.2,N
1589610275.1,286046960.3,N
1589610295.9,286046956.6,Y
1589610315.7,286047002.7,P
1589610335.5,286046997.9,N
1589610355.4,286046993.5,N
1589610375.2,286046993.8,N
1589610395.0,286046994.4,N
1589610395.9,286046994.4,N
1589610415.8,286046995.0,N
1589610435.6,286046993.0,N
1589610455.4,286046981.2,N
1589610475.3,286046975.4,N
1589610495.1,286046969.6,N
1589610515.9,286046968.7,N
1589610535.7,286046967.5,N
1589610555.5,286046959.9,N
1589610575.4,286046959.5,N
1589610595.2,286046963.7,N
1589610615.0,286046967.8,N
1589610615.9,286046967.8,N
1589610635.8,286046955.3,N
1589610655.6,286046946.9,Y
1589610675.5,286046963.5,P
1589610695.3,286046959.9,P
1589610715.1,286046958.6,P
1589610735.9,286046955.1,Y
1589610755.7,286046995.5,P
1589610775.6,286047001.7,N
1589610795.4,286047012.3,N
1589610815.2,286047005.3,N
1589610835.1,286047005.3,N
1589610836.0,286047005.3,N
1589610855.8,286047004.5,N
1589610875.6,286047005.0,N
1589610895.5,286047004.8,N
1589610915.3,286047001.7,N
1589610935.2,286047000.1,N
1589610955.9,286046998.3,N
1589610975.7,286046992.1,N
1589610995.6,286046985.2,N
1589611015.4,286046985.3,N
1589611035.2,286046992.6,N
1589611055.1,286046996.1,N
1589611056.0,286046996.1,N
1589611075.8,286046998.8,N
1589611095.7,286047003.9,N
1589611115.5,286047000.0,N
1589611135.3,286046995.6,N
1589611155.2,286046994.1,N
1589611175.0,286046982.3,N
1589611175.9,286046982.3,N
1589611195.8,286046977.1,N
1589611215.6,286046975.6,N
1589611235.4,286046975.7,N
1589611255.3,286046982.0,N
1589611275.1,286046970.4,N
1589611295.8,286046962.5,Y
1589611315.7,286046958.2,P
1589611335.5,286046949.4,N
1589611355.4,286046947.5,N
1589611375.2,286046949.0,N
1589611395.0,286046942.8,Y
1589611395.9,286046942.8,P
1589611415.8,286046989.2,N
1589611435.6,286046988.8,N
1589611455.5,286046991.0,N
1589611475.3,286046992.6,N
1589611495.1,286046991.7,N
1589611515.9,286046993.4,N
1589611535.7,286046993.3,N
1589611555.5,286046999.0,N
1589611575.4,286047000.1,N
1589611595.2,286046996.0,N
1589611615.1,286046995.8,N
1589611616.0,286046995.8,N
1589611635.8,286046997.6,N
1589611655.6,286047004.0,N
1589611675.5,286046999.1,N
1589611695.3,286046996.3,N
1589611715.2,286046993.7,N
1589611735.9,286046990.7,N
1589611755.7,286046979.1,N
1589611775.2,286046971.6,N
1589611795.9,286046960.8,N
1589611815.7,286046955.8,N
1589611835.6,286046963.3,N
1589611855.4,286046960.7,N
1589611875.2,286046959.7,N
1589611895.1,286046961.7,N
1589611896.0,286046961.7,N
1589611915.8,286046962.2,N
1589611935.7,286046963.2,N
1589611955.5,286046964.6,N
1589611975.3,286046964.5,N
1589611995.2,286046969.5,N
1589612015.0,286046976.6,N
1589612015.9,286046976.6,N
1589612035.8,286046977.5,N
1589612055.6,286046979.8,N
1589612075.4,286046976.7,N
1589612095.3,286046977.3,N
1589612115.1,286046977.9,N
1589612135.8,286046983.1,N
1589612155.7,286046984.6,N
1589612175.5,286046984.9,N
1589612195.4,286046986.9,N
1589612215.2,286046994.2,N
1589612235.0,286046994.9,N
1589612235.9,286046994.9,N
1589612255.8,286046997.0,N
1589612275.6,286046998.6,N
1589612295.4,286046992.5,N
1589612315.3,286046984.0,N
1589612335.1,286046983.1,N
1589612355.9,286046981.0,N
1589612375.7,286046975.2,N
1589612395.5,286046972.3,N
